Terug naar catalogus

STARLINK-6278

ActiefCommunicatieVLEO
NORAD 56412·PAYLOAD·🇺🇸 United States

Gelanceerd May 4, 2023 vanaf Cape Canaveral Space Force Station

Loading…

Volgende Passages (komende 24 uur)

TLE

VersSource: CelesTrak SupGP

Epoch: Sep 15, 2026, 03:04 UTC

1 56412C 23061AQ  26258.12826389  .00001876  00000+0  67976-4 0  2580
2 56412  43.0028 196.9780 0001525 275.0037 287.3555 15.27566038    13

Volg STARLINK-6278 in realtime met AllMySat

Download on the App Store